Weather History for McKinney, TX

Change the Weather History Date:

Wednesday, January 22, 2014

  Actual Average (KADS) Record (KADS)
Temperature  
Mean Temperature 40 °F -  
Max Temperature 55 °F 55 °F 78 °F (2009)
Min Temperature 25 °F 38 °F 30 °F (2001)
Degree Days  
Heating Degree Days 25    
Moisture  
Dew Point 22 °F    
Average Humidity 49    
Maximum Humidity 75    
Minimum Humidity 32    
Precipitation  
Precipitation 0.00 in - - ()
Sea Level Pressure  
Sea Level Pressure 30.17 in    
Wind  
Wind Speed 4 mph (ENE)    
Max Wind Speed 13 mph    
Max Gust Speed 17 mph    
Visibility 10 miles    
Events      
Averages and records for this station are not official NWS values.
T = Trace of Precipitation, MM = Missing Value Source: NWS Daily Summary

Daily Weather History Graph

Daily Weather History Graph

Search for Another Location

Airport:

Trip Planner

Search our weather history database for the weather conditions in past years. The results will help you decide how hot, cold, wet, or windy it might be!

Date:

Astronomy

Jan. 22, 2014 Rise Set
Actual Time 7:27 AM CST 5:48 PM CST
Civil Twilight 7:01 AM CST 6:15 PM CST
Nautical Twilight 6:30 AM CST 6:45 PM CST
Astronomical Twilight 6:01 AM CST 7:14 PM CST
Moon 11:59 PM CST (1/22) 10:50 AM CST (1/22)
Length of Visible Light 11h 14m
Length of Day
10h 21m
Waning Gibbous, 65% of the Moon is Illuminated
Jan 22
Waning Gibbous
Jan 23
Last Quarter
Jan 30
New
Feb 6
First Quarter
Feb 14
Full

Hourly Weather History & Observations

Time (CST) Temp. Windchill Dew Point Humidity Pressure Visibility Wind Dir Wind Speed Gust Speed Precip Events Conditions
12:53 AM 27.0 °F - 18.0 °F 69% 30.21 in 10.0 mi Calm Calm - N/A   Clear
1:53 AM 26.1 °F 20.5 °F 18.0 °F 71% 30.21 in 10.0 mi ENE 4.6 mph - N/A   Clear
2:53 AM 28.9 °F 23.9 °F 16.0 °F 58% 30.20 in 10.0 mi East 4.6 mph - N/A   Clear
3:53 AM 28.0 °F - 17.1 °F 63% 30.19 in 10.0 mi Calm Calm - N/A   Clear
4:53 AM 26.1 °F - 18.0 °F 71% 30.17 in 10.0 mi Calm Calm - N/A   Clear
5:53 AM 25.0 °F 18.1 °F 18.0 °F 75% 30.17 in 10.0 mi South 5.8 mph - N/A   Clear
6:53 AM 28.0 °F 24.2 °F 18.0 °F 66% 30.17 in 10.0 mi SSE 3.5 mph - N/A   Clear
7:53 AM 28.0 °F - 18.0 °F 66% 30.19 in 10.0 mi Calm Calm - N/A   Clear
8:53 AM 35.1 °F 29.3 °F 23.0 °F 61% 30.19 in 10.0 mi South 6.9 mph - N/A   Clear
9:53 AM 42.1 °F 39.2 °F 23.0 °F 47% 30.18 in 10.0 mi SSE 4.6 mph - N/A   Clear
10:53 AM 46.9 °F - 25.0 °F 42% 30.19 in 10.0 mi Calm Calm - N/A   Clear
11:53 AM 50.0 °F - 26.1 °F 39% 30.17 in 10.0 mi Calm Calm - N/A   Clear
12:53 PM 54.0 °F - 26.1 °F 34% 30.13 in 10.0 mi ESE 8.1 mph - N/A   Clear
1:53 PM 55.9 °F - 26.1 °F 32% 30.11 in 10.0 mi East 6.9 mph - N/A   Clear
2:53 PM 55.9 °F - 26.1 °F 32% 30.09 in - NE 10.4 mph - N/A   Clear
3:53 PM 54.0 °F - 26.1 °F 34% 30.09 in 10.0 mi NE 11.5 mph 17.3 mph N/A   Clear
4:53 PM 52.0 °F - 25.0 °F 35% 30.11 in 10.0 mi ENE 10.4 mph - N/A   Clear
5:53 PM 50.0 °F - 25.0 °F 38% 30.12 in 10.0 mi ENE 6.9 mph - N/A   Clear
6:53 PM 48.0 °F - 23.0 °F 37% 30.14 in 10.0 mi NNE 6.9 mph - N/A   Clear
7:53 PM 46.9 °F - 21.9 °F 37% 30.16 in 10.0 mi NE 8.1 mph - N/A   Clear
8:53 PM 46.0 °F 41.9 °F 21.9 °F 39% 30.17 in 10.0 mi NNE 8.1 mph - N/A   Clear
9:53 PM 45.0 °F 39.3 °F 21.9 °F 40% 30.18 in 10.0 mi NNE 11.5 mph - N/A   Clear
10:53 PM 44.1 °F 38.1 °F 21.9 °F 42% 30.21 in 10.0 mi NNE 11.5 mph - N/A   Clear
11:53 PM 42.1 °F 35.2 °F 21.0 °F 43% 30.23 in 10.0 mi NNE 12.7 mph - N/A   Clear